Waarnemingen

Advertentie
Mijn weer
Timrå/Midlanda, Zweden (2366): temperatuur & dauwpunt: 19.05.2020 12:00:00 - 25.05.2020 12:00:00 (CEST)Timrå/Midlanda, Zweden (2366): windsnelheid: 19.05.2020 12:00:00 - 25.05.2020 12:00:00 (CEST)Timrå/Midlanda, Zweden (2366): windrichting: 19.05.2020 12:00:00 - 25.05.2020 12:00:00 (CEST)Timrå/Midlanda, Zweden (2366): luchtdruk: 19.05.2020 12:00:00 - 25.05.2020 12:00:00 (CEST)Timrå/Midlanda, Zweden (2366): zicht: 19.05.2020 12:00:00 - 25.05.2020 12:00:00 (CEST)
Datum & Tijd tt [°C] td [°C] ff [km/u] ff [kn] dd ppp [hPa] vv [km]
25.05.2020 12:00:00 - - - - - - -
25.05.2020 11:00:00 14,9 7,1 9 5 ZZO 1026,7 10
25.05.2020 10:00:00 12,8 7,0 4 2 - 1026,4 10
25.05.2020 09:00:00 9,7 6,0 9 5 WNW 1026,2 10
25.05.2020 08:00:00 8,7 6,4 11 6 NW 1025,8 10
25.05.2020 07:00:00 8,0 6,0 8 4 NW 1025,3 10
25.05.2020 06:00:00 7,3 6,4 4 2 - 1024,4 10
25.05.2020 05:00:00 6,7 6,4 4 2 WNW 1023,6 10
25.05.2020 04:00:00 6,3 6,0 4 2 N 1022,8 10
25.05.2020 03:00:00 6,2 5,9 2 1 - 1022,0 10
25.05.2020 02:00:00 6,0 5,7 2 1 OZO 1021,1 10
25.05.2020 01:00:00 6,1 5,7 4 2 Z 1020,5 10
25.05.2020 00:00:00 6,3 5,8 5 3 N 1019,9 10
24.05.2020 23:00:00 6,7 5,8 0 0 N 1019,6 10
24.05.2020 22:00:00 7,5 5,4 4 2 O 1018,9 10
24.05.2020 21:00:00 8,2 5,6 8 4 OZO 1018,3 10
24.05.2020 20:00:00 8,3 6,0 9 5 OZO 1017,6 10
24.05.2020 19:00:00 8,5 5,9 13 7 OZO 1016,7 10
24.05.2020 18:00:00 9,6 6,0 11 6 O 1016,0 10
24.05.2020 17:00:00 9,7 5,8 16 9 ZO 1015,6 10
24.05.2020 16:00:00 9,3 6,5 18 10 ZO 1015,2 10
24.05.2020 15:00:00 9,5 6,0 21 11 ZO 1014,5 10
24.05.2020 14:00:00 10,0 7,5 13 7 Z 1014,2 10
24.05.2020 13:00:00 8,3 7,4 9 5 ZO 1014,1 10
24.05.2020 12:00:00 7,5 6,8 16 9 ZO 1013,7 10
24.05.2020 11:00:00 8,3 6,9 15 8 Z 1013,1 10
24.05.2020 10:00:00 8,1 7,2 13 7 ZO 1012,7 10
24.05.2020 09:00:00 7,6 7,3 9 5 Z 1012,4 10
24.05.2020 08:00:00 7,0 6,9 5 3 OZO 1012,3 10
24.05.2020 07:00:00 6,7 6,7 5 3 O 1012,0 10
24.05.2020 06:00:00 6,2 6,2 5 3 OZO 1011,9 2,4
24.05.2020 05:00:00 6,0 6,0 9 5 ZO 1012,0 9
24.05.2020 04:00:00 5,9 5,8 13 7 OZO 1011,9 10
24.05.2020 03:00:00 5,9 5,6 16 9 OZO 1012,4 4,4
24.05.2020 02:00:00 5,9 5,3 11 6 OZO 1013,0 10
24.05.2020 01:00:00 5,9 5,5 22 12 OZO 1013,6 3,8
24.05.2020 00:00:00 6,1 5,3 22 12 ZO 1014,0 10
23.05.2020 23:00:00 6,0 5,5 21 11 ZO 1014,1 10
23.05.2020 22:00:00 6,2 5,7 22 12 ZO 1014,6 10
23.05.2020 21:00:00 6,4 5,9 22 12 ZO 1014,7 10
23.05.2020 20:00:00 6,6 6,0 26 14 ZO 1014,6 10
23.05.2020 19:00:00 6,9 5,8 28 15 ZO 1014,8 10
23.05.2020 18:00:00 7,1 6,2 28 15 ZO 1015,2 10
23.05.2020 17:00:00 7,6 6,1 24 13 ZO 1015,5 10
23.05.2020 16:00:00 8,0 5,5 26 14 ZO 1015,7 10
23.05.2020 15:00:00 8,6 5,0 31 17 ZO 1015,9 10
23.05.2020 14:00:00 8,7 5,4 18 10 ZO 1016,2 10
23.05.2020 13:00:00 9,3 5,1 18 10 ZO 1016,1 10
23.05.2020 12:00:00 8,9 4,7 21 11 ZO 1016,5 10
23.05.2020 11:00:00 9,3 4,4 21 11 ZO 1016,1 10
23.05.2020 10:00:00 8,9 4,1 22 12 ZO 1016,5 10
23.05.2020 09:00:00 8,4 3,7 16 9 ZO 1016,4 10
23.05.2020 08:00:00 8,5 3,6 18 10 ZO 1016,3 10
23.05.2020 07:00:00 8,2 3,3 21 11 ZO 1016,5 10
23.05.2020 06:00:00 8,2 3,6 15 8 ZO 1016,9 10
23.05.2020 05:00:00 3,6 2,2 5 3 - 1017,4 10
23.05.2020 04:00:00 1,3 0,9 5 3 NW 1017,7 10
23.05.2020 03:00:00 2,2 1,5 8 4 ONO 1018,3 10
23.05.2020 02:00:00 5,4 2,4 11 6 O 1018,7 10
23.05.2020 01:00:00 6,2 2,1 11 6 O 1019,2 10
23.05.2020 00:00:00 5,5 1,0 8 4 O 1019,8 10
22.05.2020 23:00:00 6,3 1,0 11 6 O 1020,5 10
22.05.2020 22:00:00 6,3 0,9 11 6 O 1020,9 10
22.05.2020 21:00:00 8,2 1,6 15 8 OZO 1021,1 10
22.05.2020 20:00:00 9,0 1,5 18 10 ZO 1021,4 10
22.05.2020 19:00:00 10,1 -0,1 18 10 ZO 1021,9 10
22.05.2020 18:00:00 11,0 -1,8 21 11 ZZO 1022,7 10
22.05.2020 17:00:00 11,3 -0,5 22 12 ZZO 1023,4 10
22.05.2020 16:00:00 11,3 -2,6 22 12 ZZO 1023,9 10
22.05.2020 15:00:00 12,0 -4,7 24 13 ZZO 1024,8 10
22.05.2020 14:00:00 11,9 1,0 21 11 ZZO 1025,5 10
22.05.2020 13:00:00 11,6 0,6 22 12 ZZO 1025,9 10
22.05.2020 12:00:00 11,1 0,6 18 10 Z 1026,1 10
22.05.2020 11:00:00 11,3 -1,2 21 11 Z 1026,4 10
22.05.2020 10:00:00 11,1 -2,7 15 8 ZZO 1026,3 10
22.05.2020 09:00:00 10,4 -1,4 11 6 Z 1026,6 10
22.05.2020 08:00:00 8,8 0,4 4 2 - 1026,9 10
22.05.2020 07:00:00 4,9 -0,9 5 3 N 1027,2 10
22.05.2020 06:00:00 2,2 -1,5 5 3 NNW 1027,4 10
22.05.2020 05:00:00 0,9 -2,6 5 3 NNW 1027,2 10
22.05.2020 04:00:00 0,3 -3,0 13 7 NW 1027,1 10
22.05.2020 03:00:00 0,6 -2,7 9 5 NW 1026,9 10
22.05.2020 02:00:00 0,8 -2,4 8 4 NNW 1026,9 10
22.05.2020 01:00:00 0,6 -1,7 8 4 NNW 1026,9 10
22.05.2020 00:00:00 1,2 -0,6 8 4 NNW 1026,7 10
21.05.2020 23:00:00 3,2 -0,7 4 2 - 1026,6 10
21.05.2020 22:00:00 5,5 -2,7 8 4 OZO 1026,3 10
21.05.2020 21:00:00 7,4 -2,3 13 7 ZO 1025,9 10
21.05.2020 20:00:00 8,8 -1,8 16 9 ZO 1025,7 10
21.05.2020 19:00:00 9,5 -2,3 18 10 ZO 1025,5 10
21.05.2020 18:00:00 10,8 -0,2 18 10 ZO 1025,4 10
21.05.2020 17:00:00 10,8 -1,4 18 10 ZZO 1025,6 10
21.05.2020 16:00:00 11,4 -0,5 21 11 ZZO 1025,5 10
21.05.2020 15:00:00 11,4 1,3 28 15 ZZO 1025,5 10
21.05.2020 14:00:00 11,4 0,9 24 13 ZZO 1025,4 10
21.05.2020 13:00:00 13,2 0,0 22 12 ZZO 1025,2 10
21.05.2020 12:00:00 12,3 2,6 22 12 ZZO 1025,2 10
21.05.2020 11:00:00 13,5 -4,0 11 6 Z 1025,3 10
21.05.2020 10:00:00 12,6 -3,5 8 4 ZZO 1025,3 10
21.05.2020 09:00:00 11,6 -2,0 4 2 - 1025,4 10
21.05.2020 08:00:00 8,0 -1,2 5 3 W 1025,5 10
21.05.2020 07:00:00 5,7 -2,0 8 4 WNW 1025,5 10
21.05.2020 06:00:00 2,3 -2,3 8 4 NW 1025,6 10
21.05.2020 05:00:00 0,0 -2,6 8 4 WNW 1025,6 10
21.05.2020 04:00:00 -0,4 -2,7 5 3 NW 1025,4 10
21.05.2020 03:00:00 -1,2 -3,5 4 2 - 1025,2 10
21.05.2020 02:00:00 1,2 -2,3 8 4 NW 1024,8 10
21.05.2020 01:00:00 1,5 -1,8 8 4 WNW 1024,8 10
21.05.2020 00:00:00 2,0 -1,3 8 4 NNW 1024,5 10
20.05.2020 23:00:00 2,7 0,2 8 4 NNW 1024,2 10
20.05.2020 22:00:00 4,5 0,8 4 2 - 1023,9 10
20.05.2020 21:00:00 7,4 -0,3 5 3 ZO 1023,6 10
20.05.2020 20:00:00 7,4 -1,2 11 6 ZO 1023,5 10
20.05.2020 19:00:00 9,5 -1,6 18 10 ZO 1023,1 10
20.05.2020 18:00:00 9,7 -1,7 16 9 ZO 1023,1 10
20.05.2020 17:00:00 9,6 -1,9 22 12 ZO 1022,9 10
20.05.2020 16:00:00 10,4 -3,3 18 10 ZZO 1022,8 10
20.05.2020 15:00:00 9,4 -2,5 28 15 ZO 1022,9 10
20.05.2020 14:00:00 10,0 -1,9 18 10 ZZO 1022,7 10
20.05.2020 13:00:00 10,3 -2,2 21 11 ZZO 1022,5 10
20.05.2020 12:00:00 11,2 -6,3 11 6 NNW 1022,4 10
20.05.2020 11:00:00 11,1 -5,3 8 4 - 1022,3 10
20.05.2020 10:00:00 10,3 -4,1 9 5 NW 1022,3 10
20.05.2020 09:00:00 8,6 -2,4 9 5 N 1022,3 10
20.05.2020 08:00:00 7,2 -1,1 11 6 N 1022,0 10
20.05.2020 07:00:00 5,1 -1,6 15 8 NNW 1021,8 10
20.05.2020 06:00:00 3,1 -2,3 18 10 NW 1021,4 10
20.05.2020 05:00:00 1,7 -2,7 18 10 NW 1020,9 10
20.05.2020 04:00:00 1,0 -2,3 16 9 NW 1020,6 10
20.05.2020 03:00:00 0,6 -1,6 15 8 WNW 1020,1 10
20.05.2020 02:00:00 1,2 -0,9 15 8 NW 1019,7 10
20.05.2020 01:00:00 1,7 -0,7 11 6 NW 1019,2 10
20.05.2020 00:00:00 2,4 -0,6 9 5 WNW 1018,9 10
19.05.2020 23:00:00 4,0 -1,0 9 5 NNW - 10
19.05.2020 22:00:00 5,6 -0,1 9 5 NW 1017,5 10
19.05.2020 21:00:00 6,3 -0,8 9 5 NNW 1016,9 10
19.05.2020 20:00:00 7,7 -1,5 11 6 NW 1016,1 10
19.05.2020 19:00:00 9,0 -0,9 16 9 N 1015,5 10
19.05.2020 18:00:00 8,8 -0,7 9 5 NW 1014,9 10
19.05.2020 17:00:00 8,6 1,1 13 7 NNO 1014,8 10
19.05.2020 16:00:00 7,3 -0,2 24 13 NNO 1013,8 10
19.05.2020 15:00:00 11,2 -5,5 22 12 NNW 1012,4 10
19.05.2020 14:00:00 8,5 -4,5 18 10 WNW 1012,3 10
19.05.2020 13:00:00 9,4 -4,9 21 11 NNW 1011,9 10
19.05.2020 12:00:00 9,1 -3,5 15 8 NW 1011,4 10

tt = temperatuur
td = dauwpunt
ff = windsnelheid
dd = windrichting
ppp = luchtdruk
vv = zicht

Weerstations in de omgeving